When you browse on this site, cookies collect data to enhance your experience and personalize the content and advertising you see.
Visit our Privacy Policy to learn more. By continuing to use the site, you agree to this use of cookies and data.
  • In Schweiz
  • Länderverzeichnis
  • Für 7 Tage
  • Wassertemperatur
  • Wetterkarte
  • Widgets
  • user-avatar
    Anmelden

    Stündliche Wetter Linz

    Heute, 20 Februar, Donnerstag

    Zeit Temperatur Niederschläge Wind Luftdruck Luftfeuchtigkeit
    00:00 0°C° 0 mm 4 m/S 739 mmHg 84%
    01:00 0°C° 0 mm 4 m/S 739 mmHg 85%
    02:00 0°C° 0 mm 3 m/S 739 mmHg 85%
    03:00 0°C° 0 mm 3 m/S 739 mmHg 86%
    04:00 +1°C° 0 mm 2 m/S 739 mmHg 86%
    05:00 +1°C° 0 mm 2 m/S 739 mmHg 86%
    06:00 +2°C° 0 mm 1 m/S 739 mmHg 87%
    07:00 +2°C° 0 mm 1 m/S 739 mmHg 87%
    08:00 +2°C° 0 mm 2 m/S 739 mmHg 83%
    09:00 +3°C° 0 mm 2 m/S 739 mmHg 80%
    10:00 +3°C° 0 mm 3 m/S 739 mmHg 76%
    11:00 +5°C° 0 mm 2 m/S 739 mmHg 77%
    12:00 +5°C° 0 mm 2 m/S 738 mmHg 79%
    13:00 +5°C° 0 mm 2 m/S 737 mmHg 80%
    14:00 +6°C° 0 mm 2 m/S 737 mmHg 80%
    15:00 +7°C° 0 mm 1 m/S 737 mmHg 80%
    16:00 +6°C° 0 mm 0 m/S 736 mmHg 80%
    17:00 +6°C° 0 mm 1 m/S 736 mmHg 84%
    18:00 +5°C° 0 mm 1 m/S 736 mmHg 87%
    19:00 +4°C° 0 mm 1 m/S 736 mmHg 91%
    20:00 +4°C° 0 mm 1 m/S 736 mmHg 90%
    21:00 +3°C° 0 mm 1 m/S 736 mmHg 89%
    22:00 +3°C° 0 mm 1 m/S 736 mmHg 89%
    23:00 +3°C° 0 mm 1 m/S 736 mmHg 87%

    Morgen, 21 Februar, Freitag

    Zeit Temperatur Niederschläge Wind Luftdruck Luftfeuchtigkeit
    00:00 +3°C° 0 mm 2 m/S 736 mmHg 85%
    01:00 +3°C° 0 mm 2 m/S 736 mmHg 82%
    02:00 +3°C° 0.2 mm 3 m/S 736 mmHg 84%
    03:00 +4°C° 0.2 mm 4 m/S 736 mmHg 85%
    04:00 +3°C° 0.2 mm 5 m/S 736 mmHg 86%
    05:00 +3°C° 0.4 mm 5 m/S 736 mmHg 84%
    06:00 +2°C° 0.4 mm 6 m/S 737 mmHg 82%
    07:00 0°C° 0.4 mm 7 m/S 738 mmHg 80%
    14:00 +5°C° 0 mm 6 m/S 742 mmHg 54%
    15:00 +3°C° 0 mm 6 m/S 742 mmHg 58%
    16:00 +3°C° 0 mm 6 m/S 742 mmHg 58%
    17:00 +3°C° 0 mm 4 m/S 742 mmHg 64%
    18:00 +2°C° 0 mm 3 m/S 743 mmHg 69%
    19:00 +2°C° 0 mm 2 m/S 743 mmHg 75%
    20:00 +2°C° 0 mm 2 m/S 743 mmHg 76%
    21:00 +2°C° 0 mm 2 m/S 743 mmHg 78%
    22:00 +2°C° 0 mm 2 m/S 743 mmHg 79%
    23:00 +2°C° 0 mm 2 m/S 743 mmHg 79%

    übermorgen, 22 Februar, Samstag

    Zeit Temperatur Niederschläge Wind Luftdruck Luftfeuchtigkeit
    00:00 +2°C° 0 mm 2 m/S 743 mmHg 79%
    01:00 +2°C° 0 mm 2 m/S 743 mmHg 80%
    02:00 +2°C° 0 mm 2 m/S 743 mmHg 79%
    03:00 +2°C° 0 mm 2 m/S 743 mmHg 79%
    04:00 +2°C° 0 mm 2 m/S 742 mmHg 79%
    05:00 +3°C° 0 mm 1 m/S 742 mmHg 79%
    06:00 +3°C° 0 mm 1 m/S 742 mmHg 80%
    07:00 +2°C° 0 mm 1 m/S 742 mmHg 81%
    08:00 +4°C° 0 mm 1 m/S 742 mmHg 75%
    09:00 +6°C° 0 mm 1 m/S 742 mmHg 68%
    10:00 +7°C° 0 mm 1 m/S 741 mmHg 62%
    11:00 +7°C° 0 mm 2 m/S 741 mmHg 58%
    12:00 +9°C° 0 mm 2 m/S 741 mmHg 53%
    13:00 +10°C° 0 mm 3 m/S 740 mmHg 49%
    14:00 +10°C° 0 mm 3 m/S 740 mmHg 52%
    15:00 +10°C° 0 mm 2 m/S 739 mmHg 54%
    16:00 +10°C° 0 mm 2 m/S 739 mmHg 57%
    17:00 +9°C° 0 mm 2 m/S 739 mmHg 60%
    18:00 +8°C° 0 mm 2 m/S 739 mmHg 63%
    19:00 +7°C° 0 mm 2 m/S 740 mmHg 65%
    20:00 +7°C° 0 mm 2 m/S 740 mmHg 65%
    21:00 +7°C° 0 mm 3 m/S 740 mmHg 64%
    22:00 +7°C° 0 mm 3 m/S 740 mmHg 63%
    23:00 +5°C° 0 mm 3 m/S 740 mmHg 64%

    23 Februar, Sonntag

    Zeit Temperatur Niederschläge Wind Luftdruck Luftfeuchtigkeit
    00:00 +5°C° 0 mm 3 m/S 740 mmHg 64%
    01:00 +5°C° 0 mm 3 m/S 740 mmHg 65%
    02:00 +5°C° 0.1 mm 3 m/S 739 mmHg 67%
    03:00 +5°C° 0.1 mm 3 m/S 739 mmHg 69%
    04:00 +5°C° 0.1 mm 3 m/S 739 mmHg 72%
    05:00 +7°C° 0.1 mm 3 m/S 739 mmHg 71%
    06:00 +6°C° 0.1 mm 4 m/S 739 mmHg 69%
    07:00 +6°C° 0.1 mm 4 m/S 739 mmHg 68%
    08:00 +6°C° 0.1 mm 4 m/S 739 mmHg 69%
    09:00 +7°C° 0.1 mm 5 m/S 739 mmHg 70%
    10:00 +7°C° 0.1 mm 5 m/S 739 mmHg 71%
    11:00 +7°C° 0.3 mm 5 m/S 738 mmHg 73%
    12:00 +8°C° 0.3 mm 6 m/S 738 mmHg 75%
    13:00 +8°C° 0.3 mm 6 m/S 737 mmHg 77%
    14:00 +8°C° 0.5 mm 5 m/S 736 mmHg 80%
    15:00 +7°C° 0.5 mm 4 m/S 735 mmHg 82%
    16:00 +8°C° 0.5 mm 3 m/S 733 mmHg 84%
    17:00 +8°C° 0.4 mm 4 m/S 733 mmHg 81%
    18:00 +8°C° 0.4 mm 5 m/S 733 mmHg 77%
    19:00 +9°C° 0.4 mm 6 m/S 732 mmHg 74%
    20:00 +9°C° 0.4 mm 7 m/S 732 mmHg 74%
    21:00 +9°C° 0.4 mm 8 m/S 732 mmHg 75%
    22:00 +9°C° 0.4 mm 10 m/S 732 mmHg 75%
    23:00 +9°C° 0.5 mm 10 m/S 732 mmHg 76%

    24 Februar, Montag

    Zeit Temperatur Niederschläge Wind Luftdruck Luftfeuchtigkeit
    00:00 +9°C° 0.5 mm 11 m/S 732 mmHg 77%
    01:00 +9°C° 0.5 mm 11 m/S 733 mmHg 78%
    02:00 +7°C° 1.1 mm 10 m/S 734 mmHg 75%
    03:00 +6°C° 1.1 mm 9 m/S 735 mmHg 73%
    04:00 +3°C° 1.1 mm 9 m/S 737 mmHg 70%
    05:00 +2°C° 0.1 mm 8 m/S 738 mmHg 70%
    06:00 +2°C° 0.1 mm 7 m/S 740 mmHg 70%
    07:00 +1°C° 0.1 mm 6 m/S 741 mmHg 70%
    08:00 +2°C° 0 mm 6 m/S 741 mmHg 69%
    09:00 +2°C° 0 mm 6 m/S 742 mmHg 68%
    10:00 +3°C° 0 mm 7 m/S 742 mmHg 67%
    11:00 +3°C° 0 mm 6 m/S 742 mmHg 64%
    12:00 +4°C° 0 mm 6 m/S 742 mmHg 61%
    13:00 +5°C° 0 mm 6 m/S 742 mmHg 58%
    14:00 +6°C° 0 mm 5 m/S 742 mmHg 58%
    15:00 +6°C° 0 mm 4 m/S 741 mmHg 57%
    16:00 +7°C° 0 mm 3 m/S 741 mmHg 57%
    17:00 +6°C° 0 mm 2 m/S 741 mmHg 62%
    18:00 +6°C° 0 mm 1 m/S 741 mmHg 68%
    19:00 +4°C° 0 mm 0 m/S 741 mmHg 74%
    20:00 +3°C° 0 mm 0 m/S 741 mmHg 74%
    21:00 +4°C° 0 mm 1 m/S 740 mmHg 74%
    22:00 +4°C° 0 mm 1 m/S 740 mmHg 75%
    23:00 +4°C° 0 mm 1 m/S 740 mmHg 76%

    25 Februar, Dienstag

    Zeit Temperatur Niederschläge Wind Luftdruck Luftfeuchtigkeit
    00:00 +4°C° 0 mm 1 m/S 739 mmHg 77%
    01:00 +3°C° 0 mm 1 m/S 738 mmHg 78%
    02:00 +3°C° 0 mm 1 m/S 738 mmHg 78%
    03:00 +3°C° 0 mm 1 m/S 737 mmHg 78%
    04:00 +3°C° 0 mm 1 m/S 736 mmHg 78%
    05:00 +3°C° 0 mm 1 m/S 736 mmHg 78%
    06:00 +2°C° 0 mm 0 m/S 735 mmHg 78%
    07:00 +2°C° 0 mm 0 m/S 735 mmHg 78%
    08:00 +4°C° 0 mm 0 m/S 735 mmHg 74%
    09:00 +5°C° 0 mm 0 m/S 734 mmHg 69%
    10:00 +7°C° 0 mm 0 m/S 734 mmHg 65%
    11:00 +9°C° 0 mm 1 m/S 733 mmHg 61%
    12:00 +11°C° 0 mm 1 m/S 733 mmHg 58%
    13:00 +13°C° 0 mm 2 m/S 732 mmHg 55%
    14:00 +13°C° 0 mm 1 m/S 732 mmHg 58%
    15:00 +13°C° 0 mm 1 m/S 731 mmHg 62%
    16:00 +13°C° 0 mm 1 m/S 730 mmHg 65%
    17:00 +12°C° 0 mm 1 m/S 730 mmHg 69%
    18:00 +11°C° 0 mm 1 m/S 730 mmHg 74%
    19:00 +9°C° 0 mm 1 m/S 730 mmHg 78%
    20:00 +9°C° 0 mm 1 m/S 730 mmHg 79%
    21:00 +9°C° 0 mm 1 m/S 730 mmHg 80%
    22:00 +8°C° 0 mm 2 m/S 730 mmHg 81%
    23:00 +8°C° 0 mm 2 m/S 730 mmHg 82%
    Mehr zeigen